RH
17 14 14 14 16 17 18 24 31 34 31 27 22 26 36 44 53 61 71 76 71 81 89 87 88 78 69 68 63 61 61 73 86 82 81 79 77 75 71 75 71 64 71 76 70 70 77 70 55 45 38 36 35 38 48 55 61 59 58 62 57 55 52 49 53 55 57 60 62 62 59 61 58 51 49 47 46 45 39 35 36 35 34 36 37 39
17 14 12 12 14 17 17 21 28 32 31 29 22 24 37 43 47 56 69 72 65 74 81 81 87 83 74 70 64 64 65 75 88 85 82 81 77 76 71 74 76 70 73 77 74 76 75 66 56 44 38 37 32 35 44 52 62 61 58 59 57 56 51 47 50 51 55 58 61 64 62 64 59 54 54 50 50 49 39 35 36 36 34 35 36 38
15 15 12 11 13 14 16 20 23 29 30 28 26 25 30 37 47 59 71 74 69 76 79 76 86 89 82 75 67 67 69 83 98 87 80 80 78 77 71 74 79 77 79 75 73 81 74 62 57 45 37 38 33 34 40 47 59 62 59 57 56 56 50 46 47 49 54 56 61 64 64 66 61 56 58 56 57 53 41 38 38 37 36 35 36 37
13 15 12 10 12 12 14 17 21 27 29 28 27 24 24 30 40 54 71 79 73 74 75 75 83 83 82 80 71 67 70 86 100 89 82 81 79 79 73 74 80 79 79 73 72 80 77 66 58 47 41 40 34 33 37 44 54 60 60 56 55 56 53 50 49 51 56 55 58 62 64 67 63 62 63 58 60 57 44 41 42 41 39 38 38 39
12 13 12 10 11 11 12 16 23 28 26 27 27 24 23 28 35 48 65 76 75 71 70 76 87 86 83 82 75 69 70 80 87 84 86 83 80 81 76 76 82 81 76 75 77 78 79 76 59 46 45 40 36 35 35 41 49 58 60 56 55 57 56 54 51 52 56 55 54 57 59 62 60 59 61 59 62 57 44 43 45 44 43 43 44 43
11 12 12 10 9 11 12 15 23 26 25 26 26 23 21 22 32 48 57 65 75 77 72 75 88 89 78 74 75 74 75 79 75 71 79 83 82 82 81 81 83 84 78 76 83 79 80 83 63 45 44 39 38 37 35 41 48 54 57 54 53 55 55 53 52 50 52 52 53 51 51 56 56 52 54 60 62 53 43 44 46 44 45 47 47 46
10 10 11 10 10 11 11 15 22 25 26 25 21 21 20 18 27 43 49 52 62 67 62 61 74 86 81 73 73 75 79 82 73 66 75 83 84 82 84 86 83 86 83 75 83 83 79 83 66 45 43 40 41 42 40 43 47 49 53 52 51 53 53 51 50 49 47 46 49 50 51 55 54 51 54 58 58 53 46 47 46 43 44 48 48 46
10 9 11 12 14 13 11 16 25 28 28 25 20 18 19 18 19 27 34 38 42 49 52 54 62 74 83 79 73 71 72 74 74 74 80 83 80 78 82 88 85 86 85 74 81 87 78 75 63 48 46 44 45 47 45 46 48 48 48 48 49 50 51 49 47 47 43 42 44 46 51 53 52 56 58 53 53 53 50 50 48 43 42 45 48 46
9 8 12 16 18 19 18 21 27 28 26 25 22 19 19 19 18 19 23 25 28 35 47 57 55 55 73 83 80 80 74 66 70 76 78 75 69 66 71 84 86 85 84 76 77 80 73 67 58 52 53 51 51 53 50 50 51 48 45 45 47 47 50 48 45 44 42 40 41 43 49 48 51 61 58 53 55 54 53 55 51 48 44 43 47 48
9 9 15 21 21 22 24 25 26 26 25 25 22 21 20 18 17 17 18 19 21 26 32 40 41 45 70 87 82 85 81 67 64 67 67 65 61 56 61 77 86 84 83 79 76 70 63 62 56 53 57 56 56 59 56 53 51 48 45 44 44 44 48 49 43 41 40 36 36 41 47 47 54 63 57 53 58 57 59 60 54 52 50 45 48 49
14 13 16 21 21 21 22 21 21 23 25 24 23 23 22 20 18 17 18 18 21 26 25 27 33 37 62 84 77 71 70 62 58 58 58 59 58 56 58 71 82 86 84 79 80 74 61 60 57 54 59 57 56 63 61 52 52 53 47 44 43 41 46 51 45 39 38 34 32 36 45 48 54 62 58 54 56 55 58 58 53 52 49 47 50 50
17 16 17 20 21 19 19 17 16 20 22 22 23 24 22 21 20 19 20 19 21 25 24 26 33 31 46 72 69 57 58 60 58 55 54 54 54 56 61 66 72 83 87 79 80 81 67 58 53 52 60 58 52 56 56 50 53 60 54 45 43 39 40 48 46 39 36 33 29 32 42 47 50 56 60 60 58 55 56 55 52 50 47 46 49 51
16 17 19 23 22 19 18 17 16 19 19 20 23 24 22 21 21 21 20 20 20 21 23 27 33 34 43 58 57 52 56 58 59 60 60 57 54 58 62 62 60 70 84 83 80 82 74 61 52 49 54 54 50 51 52 50 51 57 55 48 46 41 37 43 46 40 35 31 28 29 38 44 46 49 53 57 58 55 54 52 50 50 47 47 49 53
15 17 19 22 22 19 19 17 15 16 16 19 22 23 23 21 23 23 19 20 20 17 21 27 32 41 52 55 52 54 60 61 62 65 66 64 59 59 63 61 61 67 78 83 83 84 82 70 56 51 48 46 47 49 52 52 49 52 53 48 48 45 37 40 45 42 37 31 29 31 37 41 42 43 45 49 51 50 48 47 50 49 47 47 50 56
14 15 18 21 19 18 20 19 16 14 13 17 20 22 22 19 20 21 17 18 18 16 19 22 30 43 55 61 58 57 68 74 74 72 70 70 66 65 67 62 63 71 73 76 83 87 88 78 61 52 52 49 46 47 52 52 45 47 52 48 46 45 39 38 41 43 40 33 29 32 37 40 39 40 42 45 49 49 45 45 49 49 49 49 49 52
16 14 15 18 18 17 19 20 18 16 13 15 18 20 20 17 17 17 16 17 15 17 18 19 36 49 53 64 66 63 73 78 77 77 73 74 74 73 76 69 65 72 72 73 82 87 90 85 68 58 57 54 49 47 52 54 44 42 48 47 44 44 41 39 40 42 41 35 32 32 35 40 43 43 43 44 48 50 47 46 50 52 53 53 51 49
20 16 15 17 18 17 18 19 19 17 14 14 16 18 18 16 15 14 15 17 15 20 18 17 44 60 54 61 63 58 69 73 70 70 66 70 75 75 78 75 70 72 71 73 79 86 93 88 75 70 62 51 48 48 51 52 45 42 48 48 44 43 41 40 41 42 41 37 34 33 34 39 45 49 49 46 45 48 50 51 52 52 52 52 53 52
23 21 17 17 17 17 17 17 17 16 15 14 12 12 13 13 14 13 14 16 15 19 17 14 40 62 55 60 66 60 68 76 72 66 61 65 70 69 71 71 69 69 72 77 78 83 93 88 76 75 66 50 47 48 50 52 47 45 49 50 46 42 40 41 41 42 42 38 34 34 34 37 43 48 51 52 50 51 54 53 51 49 49 49 51 51
22 23 20 18 17 16 16 18 16 14 13 14 13 12 11 9 11 13 14 16 15 16 18 12 25 48 51 54 65 68 72 78 74 66 62 62 61 60 62 64 65 65 69 78 82 80 84 81 73 71 66 55 49 49 51 52 48 45 49 52 48 44 43 42 42 43 44 40 35 36 37 37 42 47 49 53 55 54 54 52 50 49 49 51 52 53
21 24 23 21 18 15 18 19 16 14 12 13 14 14 12 9 10 12 12 15 15 15 19 14 21 48 57 53 59 63 66 73 71 63 61 62 59 56 58 62 65 66 68 75 82 82 77 72 69 67 67 60 52 53 56 52 49 49 52 55 51 48 46 43 42 46 46 42 38 41 42 39 41 47 47 49 53 55 56 55 55 54 53 53 52 52
20 23 23 23 20 16 17 17 16 14 11 12 14 14 13 10 8 11 10 11 12 14 18 17 34 62 62 54 61 60 60 71 71 63 60 61 58 53 56 64 65 66 69 70 77 82 77 71 67 66 72 70 57 56 59 56 56 57 59 61 56 52 50 44 43 45 46 46 44 44 46 42 40 45 48 48 50 53 58 62 62 59 55 53 52 50
21 23 26 27 24 19 18 17 17 15 10 11 12 13 13 10 10 11 11 11 9 12 14 14 40 73 65 54 62 63 62 70 68 63 60 57 57 52 53 65 69 68 70 69 74 82 81 75 67 63 71 71 58 55 60 59 60 63 64 65 61 56 52 47 45 46 45 48 49 46 46 46 43 43 44 46 47 49 56 61 61 59 56 55 55 53
21 24 26 27 27 25 24 22 19 16 13 11 10 12 13 12 12 11 10 12 9 10 13 7 26 67 74 59 59 63 66 64 57 56 56 53 57 58 54 61 72 77 77 73 74 79 81 79 73 66 65 63 54 57 63 59 60 65 64 61 60 57 54 51 51 51 47 48 52 51 48 49 49 47 44 44 45 46 50 54 55 56 57 57 56 55
23 23 25 27 29 29 27 25 22 17 14 12 10 11 10 10 12 10 9 13 10 11 13 5 19 65 86 74 70 77 80 70 57 57 59 54 56 65 65 64 72 82 84 83 83 82 82 82 80 73 68 64 60 64 71 66 62 64 59 57 59 58 55 54 54 55 51 49 52 53 50 51 52 52 48 45 44 45 47 50 52 53 56 58 56 55
24 26 28 29 31 33 31 27 24 19 13 12 12 11 11 10 9 10 10 11 11 11 9 10 35 74 86 77 78 89 92 82 68 64 68 63 58 66 74 74 75 81 84 84 83 82 82 86 88 82 77 76 70 70 77 73 63 61 58 56 58 56 54 55 55 55 55 53 54 54 53 54 52 51 51 49 47 47 47 49 51 52 54 57 57 57
23 25 29 32 37 44 45 37 32 27 19 16 15 14 13 11 10 12 11 11 15 12 9 25 51 65 69 70 76 87 96 94 81 68 66 70 68 68 73 79 83 85 84 80 75 75 79 81 84 84 83 83 78 71 73 71 63 61 60 56 56 58 59 59 57 55 56 54 53 54 55 55 54 52 51 50 49 48 48 49 50 52 55 57 57 58
24 25 27 30 34 41 44 42 38 33 25 19 17 17 16 15 18 20 15 17 25 20 21 42 57 57 65 73 73 78 90 97 92 74 59 64 74 71 68 78 88 87 81 76 73 77 80 77 77 78 76 78 76 67 64 66 65 63 61 57 54 57 64 65 59 54 53 51 49 51 53 54 56 57 54 52 53 52 50 51 54 55 55 56 56 56
24 25 25 26 29 32 34 35 36 32 27 23 22 24 25 23 25 25 21 21 25 25 28 41 51 57 66 72 68 65 71 83 93 89 72 65 72 71 67 76 82 79 75 75 76 81 80 76 76 76 73 72 72 66 60 63 66 65 66 65 60 59 61 59 49 40 40 44 47 52 56 55 55 55 54 54 56 57 56 54 57 59 56 55 56 54
25 27 27 24 24 25 27 28 30 31 29 26 26 28 29 28 28 27 25 23 23 27 28 30 43 57 60 64 66 60 59 69 81 86 83 78 76 69 64 72 79 76 73 72 74 78 78 77 77 78 76 73 71 68 66 69 73 71 70 69 67 66 62 56 49 40 35 37 39 44 51 51 47 44 45 47 48 53 57 58 59 59 59 61 60 58
30 29 27 25 24 25 25 24 27 30 30 27 27 27 27 28 30 30 29 28 29 31 28 27 44 63 61 54 56 54 54 63 70 74 80 88 91 80 66 68 75 77 76 72 69 69 70 75 78 79 80 77 74 73 72 76 79 76 71 66 62 61 59 60 64 59 49 44 42 43 46 46 40 36 37 41 43 46 49 54 58 57 60 64 64 62
34 30 27 27 26 25 26 26 26 29 31 30 29 29 28 27 27 30 34 38 39 41 42 38 46 67 70 54 47 50 54 62 70 73 75 82 91 93 82 70 70 78 84 83 78 71 66 67 72 77 82 81 78 75 72 73 74 72 72 71 65 59 54 59 71 74 68 64 61 59 59 57 53 49 44 42 43 44 46 50 53 52 55 62 66 68
33 31 31 30 27 25 26 26 25 26 29 30 30 32 33 31 26 29 40 50 54 56 57 49 50 71 78 60 53 61 65 71 76 75 77 83 88 96 96 84 79 89 92 87 83 79 69 63 65 72 75 76 77 77 75 75 73 71 74 76 73 66 59 61 69 71 71 75 75 74 74 73 71 69 63 57 51 48 52 57 57 54 52 56 64 72
32 34 33 31 29 27 25 23 24 26 26 30 35 38 38 36 32 35 44 52 60 67 66 63 68 79 75 64 67 74 71 74 79 76 79 87 88 91 97 94 91 97 99 93 89 84 76 70 72 75 75 74 78 79 76 77 79 78 78 78 75 67 58 59 64 64 65 71 75 77 79 80 81 80 77 73 67 61 59 62 63 62 58 55 59 65
33 35 32 32 31 29 27 25 25 26 29 37 45 45 42 40 38 43 47 48 58 70 75 79 83 79 72 71 74 77 76 78 77 69 67 75 82 86 93 99 99 98 99 98 95 88 82 79 76 73 70 69 71 70 70 77 81 80 79 79 75 66 58 58 62 65 66 68 70 73 74 75 80 84 83 80 77 74 68 64 65 67 67 64 62 62
31 31 32 33 31 28 28 27 28 33 39 46 47 45 45 44 40 44 51 58 67 70 68 74 80 76 77 78 73 76 86 84 71 64 65 74 82 81 83 93 101 100 98 97 95 92 90 89 87 83 78 72 67 67 73 81 83 81 80 81 79 73 69 69 68 68 69 69 69 71 70 70 73 78 83 86 85 83 80 75 72 72 72 72 72 71
29 30 33 32 33 36 33 29 31 38 43 44 44 45 47 45 43 46 53 64 74 72 62 64 72 70 68 72 78 86 93 86 76 76 82 84 83 81 83 89 95 99 101 99 97 96 94 95 96 96 93 87 80 80 85 86 85 83 82 83 82 78 77 76 75 75 76 73 70 69 70 73 73 71 74 81 86 87 87 85 84 84 82 82 82 82
29 29 32 31 36 41 39 33 31 34 41 46 46 49 50 48 48 50 53 64 76 76 65 59 66 68 60 62 79 90 89 90 91 89 89 89 85 86 92 94 91 93 97 96 94 93 93 94 93 92 93 91 87 88 91 90 87 85 83 83 84 81 78 78 78 79 82 80 74 69 68 71 73 71 72 76 80 83 84 83 85 88 87 87 87 88
29 30 33 34 35 38 41 42 33 30 43 54 54 55 53 50 50 47 50 65 73 71 70 70 75 78 67 60 71 78 76 85 97 96 94 93 89 88 95 101 96 89 89 92 91 88 86 86 85 84 83 82 82 84 85 86 89 91 90 88 86 84 83 84 83 81 81 81 76 72 73 74 72 71 75 78 78 75 72 71 74 78 79 79 79 79
28 30 31 29 29 33 38 41 37 42 58 62 53 53 53 52 55 50 46 60 69 67 74 83 85 83 73 64 67 71 71 77 86 90 93 95 94 93 95 98 97 87 82 85 88 87 87 85 81 79 76 76 81 83 80 79 82 86 89 89 87 88 87 85 84 81 79 82 82 80 83 84 78 75 80 84 80 74 70 69 70 71 72 73 73 71
31 32 32 26 25 27 26 31 44 60 69 58 44 50 59 58 55 49 46 59 68 64 69 80 85 85 78 71 72 78 84 83 78 80 87 92 95 96 93 93 95 90 83 82 82 84 87 87 85 83 78 75 76 77 78 79 78 78 82 85 85 88 88 84 85 87 86 87 89 88 87 86 82 81 85 86 82 79 78 78 78 78 78 79 79 76
29 27 27 26 26 22 18 31 53 64 61 50 44 51 55 49 45 49 56 63 63 59 60 67 76 83 80 77 81 89 96 96 89 87 90 91 91 92 92 93 95 92 89 87 86 83 81 82 83 84 84 82 79 78 83 89 90 89 91 93 93 93 91 87 89 92 91 89 91 91 89 87 86 84 86 88 87 85 82 81 81 82 79 77 76 72
32 30 29 29 29 24 21 31 53 64 57 50 52 53 47 48 58 63 67 70 66 58 55 56 62 71 72 70 73 80 87 93 94 94 93 91 89 87 85 85 85 84 86 89 91 90 87 86 83 80 83 89 89 86 87 90 95 98 99 99 99 97 95 94 95 95 93 91 93 94 92 89 88 86 86 90 91 88 85 83 81 76 71 69 70 70
40 37 40 40 35 34 37 38 49 66 65 56 61 65 56 57 65 62 67 81 75 57 53 57 61 65 67 68 69 71 74 80 86 92 93 91 88 83 80 80 81 82 86 91 94 94 91 88 87 84 84 90 93 91 89 90 94 99 100 100 100 99 99 99 97 95 95 95 96 97 95 91 88 88 88 90 90 88 86 84 78 72 69 68 70 71
39 38 45 49 42 43 53 55 58 72 73 61 60 62 55 53 57 58 70 83 72 57 56 59 60 62 63 66 68 68 71 76 81 87 90 87 84 83 82 83 83 84 88 91 92 91 88 86 86 84 82 87 91 91 89 90 93 95 96 95 94 94 97 99 96 92 92 95 98 100 97 90 88 90 92 91 87 87 90 88 80 76 74 70 65 64
45 47 46 48 49 50 56 59 61 71 76 70 64 62 65 70 72 70 72 70 62 61 59 52 54 61 59 56 57 60 66 73 74 76 80 81 80 80 81 84 86 88 91 92 88 85 85 85 85 80 75 78 85 86 85 84 86 87 88 89 88 87 86 88 89 87 85 88 94 98 97 92 91 94 94 88 80 79 87 91 88 85 81 71 63 62
53 51 40 41 52 57 56 58 61 67 74 77 70 61 62 67 65 61 60 57 54 55 53 49 53 57 52 50 53 54 56 60 62 66 71 75 80 83 81 80 83 85 87 88 85 81 81 84 85 79 70 66 69 72 73 75 76 74 69 69 74 76 74 73 73 73 73 75 79 84 88 90 91 92 93 91 84 78 80 85 87 88 84 74 65 63
55 49 40 42 52 56 55 61 69 72 74 79 80 74 65 55 49 46 46 47 49 50 51 55 56 52 49 52 55 54 52 53 55 57 57 59 67 74 75 74 75 77 79 80 80 79 80 83 83 76 65 59 59 61 63 66 67 63 55 51 52 54 57 62 66 66 67 69 70 73 78 81 82 82 83 84 82 78 78 82 83 82 81 78 74 70
55 50 46 47 52 56 59 64 71 73 71 70 76 83 75 54 42 42 42 42 45 47 49 55 56 53 52 51 51 52 53 54 56 56 55 56 55 55 62 71 75 75 74 74 75 77 78 79 79 74 67 63 62 62 60 60 61 58 54 50 44 35 34 45 56 61 65 69 69 69 69 69 70 74 76 76 76 75 72 71 70 69 69 72 74 74
49 47 49 51 54 59 62 63 66 68 67 63 63 68 66 51 40 42 45 43 42 42 44 50 55 59 58 52 47 49 56 65 71 71 72 73 66 59 65 77 81 79 76 73 73 74 76 77 78 76 72 68 67 66 65 65 66 62 56 51 45 35 28 29 32 35 41 51 56 58 60 62 63 65 67 66 68 68 65 60 58 58 60 61 62 64
49 46 49 55 59 62 61 62 67 66 64 66 69 68 65 58 50 46 47 46 44 42 44 48 53 61 64 59 53 52 56 64 74 80 84 87 82 76 79 85 88 85 79 73 72 73 75 76 74 72 71 69 68 68 67 68 69 69 65 60 53 45 35 26 18 13 15 24 31 34 38 46 50 53 55 56 56 56 55 54 53 53 54 55 54 54
54 51 55 60 63 66 66 66 70 70 66 67 69 66 62 59 53 47 47 50 47 44 46 49 50 56 61 60 61 62 59 58 63 71 79 87 90 86 83 85 90 91 84 77 73 71 72 73 72 71 72 72 72 71 70 70 70 71 71 67 60 52 43 35 28 20 11 10 16 19 19 21 24 30 37 43 46 48 49 50 50 49 48 47 47 46
Wind_Speed
11 13 16 19 20 18 19 19 18 19 15 10 9 9 9 11 7 5 5 6 10 14 17 19 19 20 23 25 25 24 23 23 25 27 26 25 25 23 21 22 21 21 21 20 20 19 18 17 16 15 14 13 13 12 11 11 11 11 10 10 11 11 10 12 11 10 11 11 11 11 12 12 11 11 10 11 11 10 10 10 10 11 11 12 12 12
13 16 17 18 19 18 18 19 19 18 15 12 12 9 5 8 7 5 5 4 8 13 15 17 17 18 23 26 27 26 25 24 24 27 27 25 26 24 23 22 21 21 21 21 21 20 20 19 17 15 14 14 13 11 11 11 11 11 11 10 11 11 11 12 12 11 10 11 11 12 12 12 12 11 10 10 11 10 11 11 11 11 11 12 12 11
15 17 17 16 17 19 18 18 19 18 16 15 12 11 10 9 9 7 7 6 7 10 10 14 18 18 19 24 27 28 28 26 24 26 27 26 25 25 25 23 22 23 23 23 22 21 21 19 18 16 15 15 13 12 12 11 11 11 11 11 12 12 12 12 13 12 11 11 11 11 12 13 13 12 11 11 11 11 11 11 11 11 11 11 11 11
15 16 16 15 16 19 20 18 17 17 17 15 13 14 11 11 13 10 10 10 8 7 6 10 15 15 17 22 27 29 28 27 24 24 27 27 26 26 26 23 22 24 24 23 22 22 21 19 18 17 16 15 13 12 13 12 12 11 11 12 12 12 12 12 12 12 11 11 10 10 11 12 12 12 11 11 11 11 11 11 11 11 11 11 10 10
13 13 15 17 16 18 20 18 16 17 18 14 17 18 7 5 11 12 12 9 8 7 6 9 11 12 18 21 26 30 28 26 25 22 25 27 26 27 26 24 23 24 23 22 22 22 21 19 18 17 16 15 13 13 13 12 12 12 12 12 12 13 12 11 11 11 11 11 11 9 9 11 11 11 11 11 11 11 11 11 11 11 11 11 10 10
15 12 13 18 18 18 20 19 17 18 17 14 17 21 13 3 5 11 11 9 9 8 7 11 10 7 15 19 22 28 28 28 27 24 24 25 26 26 26 25 24 24 23 23 23 22 21 20 18 16 16 15 14 14 13 13 13 12 12 12 13 13 12 11 11 11 11 11 12 11 10 11 11 12 12 11 12 12 12 11 11 11 11 11 10 10
17 14 11 15 16 17 20 18 16 15 16 17 14 13 14 9 4 7 7 8 7 6 7 10 10 6 12 19 21 27 29 27 27 27 27 26 26 27 26 25 24 24 24 23 23 22 22 21 18 16 15 15 15 15 14 14 13 13 13 13 13 13 13 12 11 11 11 12 12 12 12 11 11 12 12 11 12 13 13 12 11 11 10 10 10 9
18 17 12 14 16 17 20 18 14 13 16 18 8 3 8 11 9 8 6 7 6 6 7 10 13 10 12 17 20 24 28 28 28 29 29 28 29 28 25 25 24 24 25 24 23 23 22 21 19 15 15 15 15 15 15 14 14 13 13 13 14 14 13 12 12 12 11 12 13 13 12 12 13 12 12 12 12 12 12 12 11 11 10 9 9 9
16 18 13 13 15 13 16 17 16 15 18 18 9 6 9 14 10 14 10 10 9 9 12 14 16 11 6 10 16 21 25 28 31 32 30 29 30 29 26 25 26 25 24 23 24 24 23 21 19 16 16 16 15 15 15 14 14 14 14 14 15 14 14 13 12 12 12 12 13 13 13 13 13 13 13 12 11 11 11 11 11 10 10 9 9 8
9 12 11 11 14 13 13 15 17 18 19 17 12 10 12 12 8 13 13 11 10 10 12 13 14 10 3 8 16 20 23 28 32 32 31 29 28 28 27 26 26 26 25 24 24 24 22 21 19 18 17 17 17 16 15 15 15 14 15 15 15 14 14 13 13 13 13 13 14 14 13 13 13 13 13 13 12 11 11 11 10 9 9 9 9 9
7 7 10 11 13 14 15 14 16 19 18 16 11 9 11 11 8 9 12 13 10 9 13 12 12 11 5 11 18 15 13 21 28 30 31 31 30 29 29 28 27 27 27 25 24 23 22 22 20 19 18 18 18 17 17 17 16 15 16 15 15 15 15 15 14 15 15 14 15 15 14 14 13 13 13 13 12 12 12 11 11 10 10 9 9 8
10 11 11 11 12 12 15 16 15 18 18 16 12 9 10 12 12 10 12 13 10 7 11 11 12 13 8 11 16 12 7 13 21 25 28 32 34 32 31 31 28 28 27 25 24 24 24 23 22 20 20 19 19 18 18 17 16 16 16 15 15 15 15 15 15 16 16 16 16 16 15 14 14 13 12 12 12 13 12 11 11 10 10 9 9 9
13 13 10 9 12 13 14 17 17 17 20 18 13 12 11 10 11 10 9 10 10 10 9 9 10 11 7 6 9 9 9 11 16 19 22 27 34 35 33 31 29 29 28 26 26 26 26 24 23 23 22 21 20 19 19 18 17 17 16 16 16 16 15 15 16 16 17 16 17 17 15 15 14 13 12 12 13 12 12 11 10 10 10 10 10 10
15 15 13 11 14 16 16 17 19 19 20 19 15 14 12 9 7 7 7 7 9 12 11 10 9 6 5 4 4 8 9 9 11 15 17 20 27 32 33 31 30 30 29 28 28 27 26 25 24 24 23 23 22 21 20 19 18 17 16 17 17 16 16 16 16 17 17 17 17 17 16 15 15 14 13 13 13 12 12 12 12 12 11 12 12 11
13 14 17 16 14 17 19 19 18 17 19 18 17 17 16 14 10 6 6 6 7 10 11 12 8 3 4 3 3 6 7 8 11 13 15 17 21 26 31 32 31 31 30 29 29 28 28 27 26 24 24 24 23 22 20 20 20 18 17 17 17 17 17 17 17 17 17 18 18 18 17 15 14 14 13 14 13 13 13 13 13 13 12 12 12 11
12 13 14 15 12 14 19 20 15 12 17 18 17 21 21 17 14 12 11 10 11 10 7 9 6 4 5 6 6 8 11 12 13 12 14 17 19 22 28 32 32 33 32 30 31 30 29 29 27 25 26 24 23 23 22 21 21 19 18 17 17 17 18 18 18 18 18 19 19 19 18 16 15 14 14 14 13 13 13 13 13 13 12 11 11 11
12 12 6 12 12 14 17 19 15 11 11 12 17 23 22 17 15 15 13 14 14 9 7 8 9 12 8 7 9 11 14 14 13 12 14 16 19 21 25 30 33 34 33 32 33 32 31 31 28 26 27 26 24 24 23 22 21 19 18 18 17 17 18 18 18 18 18 19 20 20 19 17 16 15 15 14 14 13 13 13 13 12 11 11 11 11
9 11 2 9 11 14 13 14 17 17 13 10 13 17 18 18 17 16 12 10 10 6 8 11 11 17 11 8 12 14 15 15 13 13 15 16 18 19 20 25 30 33 34 34 35 33 32 33 30 28 28 27 24 24 23 23 22 20 18 18 17 18 18 19 19 19 19 19 20 21 20 18 17 16 17 16 16 15 14 13 13 13 12 12 12 11
6 8 6 8 12 13 12 11 16 20 21 18 13 8 12 17 16 16 12 7 8 6 6 10 9 12 8 8 15 18 15 14 13 13 14 16 17 17 17 20 24 30 34 36 37 36 35 34 30 28 27 26 24 24 24 24 23 21 19 18 18 18 18 19 20 20 19 19 19 20 20 19 18 18 18 17 17 17 16 14 14 13 12 11 12 11
5 7 7 9 13 11 12 14 16 18 22 22 17 11 12 16 14 16 14 10 9 6 5 8 6 6 6 9 15 16 14 14 15 14 14 17 17 15 17 19 21 26 33 38 40 40 38 35 30 28 26 25 24 24 23 24 23 21 20 19 18 19 19 20 20 20 20 19 19 20 21 21 20 19 19 18 17 17 17 16 15 14 13 12 12 11
6 7 7 8 10 10 12 15 16 16 19 21 19 14 14 14 12 12 15 16 14 8 6 5 1 4 6 14 15 13 14 17 17 16 15 17 18 16 17 20 22 24 28 35 41 43 41 37 32 29 27 25 24 24 24 23 23 22 21 19 19 20 20 21 21 20 20 20 20 20 21 21 21 21 20 19 18 17 17 16 16 15 13 12 12 12
4 4 7 8 10 11 10 8 12 16 17 19 20 16 12 12 13 10 10 15 16 12 10 7 1 4 6 14 16 15 17 18 16 14 14 15 17 16 17 19 21 23 24 29 38 44 43 38 33 30 28 26 24 24 25 24 24 24 22 21 20 21 21 21 21 20 21 21 20 20 20 21 21 22 21 21 20 18 18 17 15 14 13 13 13 12
7 6 8 10 12 16 14 5 7 15 17 18 20 19 15 14 16 15 11 10 12 13 15 15 6 6 8 11 16 16 16 16 13 11 12 15 17 17 17 17 19 20 21 25 33 42 43 38 34 31 29 27 25 24 26 27 27 26 25 23 22 22 22 21 21 21 21 20 20 20 20 20 21 21 22 22 21 20 19 18 16 15 14 14 14 14
5 5 9 12 13 16 16 11 11 16 18 21 21 21 21 19 17 17 13 12 15 14 13 13 6 7 8 9 12 13 14 13 12 11 11 13 17 17 18 18 17 18 20 23 29 38 41 38 35 32 30 29 28 28 28 28 28 27 26 24 23 23 23 23 23 21 21 21 20 20 20 20 20 20 21 22 21 21 20 19 18 17 16 16 16 15
5 4 7 10 10 9 9 11 13 14 13 17 18 17 20 20 18 17 15 14 16 18 14 9 0 7 5 7 8 7 9 10 12 14 13 13 16 18 18 17 16 17 18 20 25 34 40 40 37 34 31 31 32 31 30 29 28 27 27 25 25 25 24 24 25 24 22 22 21 20 20 19 20 20 20 20 21 21 20 20 20 19 18 17 17 16
6 7 7 7 7 4 3 8 11 10 8 9 15 17 19 20 17 16 19 14 11 17 17 7 6 7 3 4 5 5 5 7 13 17 16 17 18 18 18 17 16 17 16 16 19 27 35 39 39 37 34 33 33 32 30 29 27 27 27 27 26 25 25 25 26 25 23 23 22 21 21 20 20 20 20 20 20 20 20 20 20 19 19 18 17 16
7 8 8 9 9 6 5 10 12 11 10 10 13 13 11 11 9 9 11 8 4 9 5 11 12 5 5 3 2 4 5 4 8 14 15 17 18 18 19 18 16 16 14 13 16 23 31 35 37 36 34 33 33 32 31 29 28 28 29 30 30 29 27 26 25 24 23 23 23 22 21 22 21 20 20 20 20 20 20 20 19 20 20 19 18 18
8 10 10 10 11 11 9 10 10 11 13 12 12 13 12 8 9 10 10 8 5 8 1 13 11 3 5 3 0 1 1 2 2 7 12 14 15 16 17 17 16 15 14 13 16 21 27 30 32 33 33 33 33 32 31 30 30 30 31 31 31 30 27 24 23 24 24 24 24 22 22 22 22 21 20 20 20 20 20 20 19 19 21 19 19 19
8 10 10 10 11 11 11 11 9 10 13 12 11 10 9 9 9 10 12 11 9 12 10 7 8 3 2 0 2 3 5 5 4 3 5 8 12 15 17 18 17 16 14 12 15 19 22 24 28 31 32 33 34 34 33 33 32 32 31 29 27 25 23 22 23 25 26 25 25 24 23 23 23 23 23 23 23 22 22 21 20 20 20 19 19 20
8 10 11 11 11 11 11 11 9 10 12 11 9 8 7 8 9 9 10 11 12 15 16 13 9 4 2 3 4 6 8 6 5 4 4 4 5 11 19 19 16 17 17 15 15 16 18 22 26 31 33 34 36 36 35 35 35 34 33 31 29 27 24 25 27 28 27 26 26 25 25 25 25 26 26 25 26 25 24 24 23 23 22 20 20 20
6 7 8 9 11 11 10 11 11 10 9 10 10 9 9 9 9 7 8 11 12 13 14 13 10 7 5 5 6 8 9 7 5 4 5 4 3 6 15 17 16 16 17 18 19 16 15 18 21 26 32 34 36 38 37 35 35 36 35 33 32 30 28 29 30 30 30 30 29 28 28 28 28 28 28 27 27 27 26 25 25 25 23 23 22 21
6 8 7 8 10 11 9 10 12 10 8 11 11 10 10 11 10 7 5 7 8 10 12 13 9 5 4 4 6 8 9 9 7 6 6 6 4 5 8 12 14 14 13 17 20 16 14 17 18 21 27 29 32 36 37 35 36 37 37 36 35 33 31 31 33 32 31 32 32 33 33 33 33 32 32 31 31 30 29 28 27 26 26 25 25 24
7 8 8 7 9 10 9 8 9 9 10 11 8 7 10 10 7 5 4 5 5 7 10 10 7 4 3 3 5 8 10 10 9 8 7 7 5 6 6 7 9 12 14 16 16 15 17 20 20 19 21 24 28 31 32 32 32 34 37 39 39 36 32 32 33 31 30 30 32 34 36 36 37 37 37 35 33 32 31 31 31 30 29 29 28 27
6 7 7 6 8 9 7 6 7 7 8 7 2 2 8 8 4 4 8 9 6 6 8 8 5 3 4 5 7 10 11 11 10 8 8 8 6 5 5 6 7 10 13 14 14 15 17 19 18 18 18 22 26 27 28 29 29 29 32 37 40 40 37 35 35 34 33 33 34 34 34 35 36 38 39 38 37 36 35 34 34 33 32 32 31 30
6 7 7 6 8 9 7 6 8 6 3 2 1 1 4 5 4 4 6 5 4 5 9 9 6 4 5 8 11 11 10 11 11 10 11 12 9 7 7 8 9 10 10 10 12 13 13 13 15 16 18 21 23 24 26 28 27 25 27 31 36 40 41 39 38 37 35 35 34 33 32 33 34 35 37 38 38 39 39 39 38 37 35 35 35 34
6 7 8 7 7 8 7 8 7 3 1 1 2 2 4 4 5 5 4 3 3 7 10 8 6 7 8 9 12 12 10 11 12 12 13 13 12 12 11 10 11 12 11 11 12 12 11 10 10 12 13 16 19 20 22 22 22 22 24 27 30 34 37 37 35 33 32 31 30 31 31 32 33 33 33 35 36 36 37 38 38 38 37 37 37 37
6 6 7 6 5 5 9 9 6 4 2 3 4 2 6 6 5 5 6 4 4 7 9 7 6 7 8 8 11 13 11 11 13 13 13 13 13 13 13 12 12 13 14 14 14 14 13 13 13 12 12 13 15 16 18 19 21 22 23 24 26 29 30 30 30 29 29 27 27 29 30 31 30 29 29 31 31 31 31 32 33 35 35 35 34 34
7 6 6 6 5 4 6 9 8 6 3 2 3 2 5 8 7 6 8 5 1 4 8 8 8 7 7 8 10 12 11 9 10 12 11 11 13 15 16 16 16 16 17 16 16 17 18 18 18 17 16 16 16 16 18 19 21 22 22 23 25 26 26 26 26 26 26 25 26 28 28 28 27 26 25 26 26 25 25 25 27 28 29 28 28 29
6 7 7 7 7 5 4 6 9 6 0 1 3 2 4 8 7 7 8 6 5 3 3 7 8 8 7 7 9 13 14 11 10 12 12 11 12 15 19 19 18 18 17 16 16 17 18 19 20 19 19 19 18 18 20 21 22 23 24 25 26 25 25 25 24 24 24 24 25 26 26 26 26 25 25 24 23 23 22 21 22 23 22 21 21 23
4 5 7 9 8 7 7 6 3 1 1 2 4 3 4 9 8 6 6 2 3 3 1 2 5 7 7 5 9 13 13 11 11 13 13 12 12 14 18 19 18 18 17 17 18 18 18 19 20 20 19 19 19 21 22 23 24 26 26 26 26 25 25 24 23 22 23 23 23 24 23 24 24 24 23 23 23 23 21 20 19 20 19 19 18 19
6 6 7 9 8 8 8 5 5 3 2 4 3 3 7 10 8 5 4 4 2 3 4 5 6 8 10 8 5 9 11 11 12 13 13 11 11 12 16 17 17 18 18 17 18 20 21 22 22 21 20 19 19 20 21 22 23 23 23 22 23 23 22 22 21 21 22 22 23 22 22 22 23 22 21 22 22 22 20 19 19 19 18 18 18 17
6 6 6 7 6 7 8 4 7 5 2 3 3 6 8 6 4 3 4 6 7 8 10 12 11 11 14 14 10 7 9 10 10 10 11 10 10 10 13 15 15 16 17 17 18 20 21 22 22 22 23 22 21 20 21 22 23 23 21 20 20 21 20 19 19 20 21 22 23 23 23 24 24 23 22 21 21 20 19 19 19 19 18 17 16 16
4 4 6 7 7 9 10 3 5 5 3 2 2 5 5 3 3 2 3 5 8 9 9 12 12 11 13 15 11 7 7 10 8 6 6 7 8 9 9 10 10 10 10 12 15 17 19 21 22 23 25 25 25 25 25 25 24 23 22 21 22 22 21 20 20 20 21 22 22 23 23 23 23 23 22 21 20 19 19 19 19 18 17 17 16 16
3 2 2 3 5 7 8 4 3 3 3 3 1 2 3 4 3 3 2 4 8 9 9 10 11 10 12 12 9 5 6 8 8 7 6 6 7 8 8 9 9 8 7 8 10 13 17 20 22 23 24 25 25 25 26 27 26 23 22 22 23 23 22 21 20 20 19 19 20 22 21 19 20 21 21 20 19 20 19 19 19 18 17 17 16 14
3 4 4 2 4 4 4 3 3 2 2 3 2 0 3 4 3 2 3 5 7 9 10 11 10 10 10 10 8 6 6 8 9 9 9 8 8 10 10 10 11 10 9 9 10 11 13 15 18 18 20 22 23 23 23 24 24 24 23 23 23 23 21 20 19 19 17 17 18 20 20 18 19 21 21 20 19 18 17 16 18 18 18 17 16 14
3 5 5 2 1 0 2 2 2 2 2 3 4 3 1 2 4 6 7 7 8 9 11 11 10 9 9 7 6 5 5 7 8 9 8 8 9 9 10 11 11 12 13 13 13 12 13 15 16 16 16 18 19 19 18 18 19 20 20 20 19 19 18 17 17 16 16 15 16 17 18 17 18 18 19 21 21 19 16 16 17 18 18 18 18 17
5 6 4 3 4 4 4 4 3 3 2 2 4 4 4 6 8 8 9 9 9 10 11 10 10 9 8 6 5 5 5 5 6 6 5 5 7 8 10 11 11 12 13 14 13 12 13 15 16 16 16 16 16 16 15 15 14 14 14 14 14 14 14 14 15 14 14 14 13 13 14 15 15 15 16 20 21 20 17 17 17 16 16 16 17 18
7 6 3 3 5 4 4 6 6 5 5 4 2 4 8 10 10 9 9 10 9 9 9 10 10 9 7 5 5 4 4 4 5 4 4 4 6 7 8 10 10 10 11 12 12 11 11 12 14 16 16 16 16 16 15 14 14 14 13 12 12 12 12 14 15 14 14 14 13 12 13 13 13 13 14 16 18 17 16 15 12 11 13 14 14 14
11 6 3 3 5 6 7 7 8 8 8 8 7 8 11 13 12 10 11 11 11 11 10 10 10 8 6 5 4 3 2 3 4 4 4 6 8 8 9 9 9 9 9 11 11 11 11 12 13 14 15 15 15 15 15 15 16 16 15 13 11 10 9 10 10 10 11 13 14 13 14 13 12 13 14 14 14 13 13 12 11 11 12 12 11 12
9 6 5 5 6 8 8 8 9 8 8 9 9 8 10 11 10 10 11 12 13 12 11 10 10 9 7 5 5 4 3 3 5 6 7 9 10 10 10 10 9 8 9 10 11 12 13 13 12 12 12 12 12 13 14 15 16 17 17 16 13 9 6 6 5 5 7 11 13 14 14 14 12 13 15 14 13 12 12 12 12 12 12 12 12 12
7 6 7 9 10 10 9 8 8 8 10 11 12 11 11 11 11 10 10 10 12 13 12 10 10 11 10 7 7 7 5 4 6 8 9 11 12 12 12 11 10 9 10 11 13 14 15 16 15 13 12 11 12 12 13 14 14 14 15 16 15 12 9 7 6 6 5 7 11 14 14 12 12 13 15 16 16 15 16 16 15 15 15 15 15 15
Wind_Direction
209 218 218 219 219 219 222 228 236 243 261 288 267 247 218 205 224 235 219 231 220 206 207 205 199 197 195 192 185 183 185 183 180 179 180 180 178 178 175 182 190 176 174 184 185 182 183 197 201 194 196 196 198 190 177 178 173 172 172 167 161 156 157 154 152 149 141 139 138 140 141 142 145 144 142 140 139 142 145 148 146 145 143 140 140 140
212 222 223 222 219 222 227 229 237 244 251 262 269 270 220 200 219 215 211 226 207 205 212 208 199 199 198 195 188 185 188 189 186 182 181 183 181 178 178 185 188 176 177 187 186 184 189 198 201 198 199 201 202 190 182 185 178 176 176 172 167 161 160 158 158 157 150 144 143 145 147 149 150 149 152 150 147 149 151 152 150 149 147 142 143 142
214 227 226 224 223 226 230 231 236 240 247 253 256 264 256 213 176 162 183 179 175 198 221 215 204 202 201 197 193 190 191 191 192 188 181 182 186 181 178 187 190 178 182 192 187 187 195 199 200 199 201 203 202 192 189 189 184 183 178 176 174 167 163 163 163 164 161 156 154 154 153 151 152 157 164 163 158 157 157 158 156 153 150 147 147 144
216 228 227 225 224 226 230 232 236 237 241 246 244 253 253 206 188 169 167 176 177 184 211 207 201 208 208 204 201 198 196 194 195 192 181 181 189 186 179 186 192 184 188 196 190 190 196 200 202 198 200 204 202 195 193 193 189 188 184 180 179 174 170 169 168 167 167 165 162 161 158 155 157 163 168 169 166 162 164 166 163 159 157 154 152 151
228 229 222 223 225 226 230 231 232 233 235 239 246 253 257 177 190 171 159 173 169 166 187 179 181 209 211 205 204 202 201 199 201 198 187 185 190 189 182 185 192 189 193 196 191 192 194 201 206 199 200 204 200 198 197 196 194 191 190 185 183 181 178 177 173 169 168 167 166 165 161 158 159 162 167 172 169 167 172 174 171 166 164 163 161 160
238 235 220 218 222 226 227 230 226 225 232 234 239 250 261 267 146 143 155 163 154 172 197 179 175 221 220 211 208 204 202 200 203 206 201 193 190 191 187 187 191 192 197 196 191 194 193 200 207 199 202 205 198 200 199 198 198 195 193 191 188 187 184 182 178 172 169 171 171 165 162 161 161 165 170 172 168 170 176 178 177 173 169 168 168 168
236 238 230 215 219 225 224 230 227 218 229 232 230 243 254 250 166 134 165 172 163 197 226 210 196 202 214 213 209 207 204 199 201 206 205 198 193 193 190 190 191 192 200 199 192 196 196 200 206 198 200 203 197 199 199 199 200 198 197 196 195 193 189 187 183 179 175 175 176 169 167 169 170 172 172 173 173 173 175 177 178 176 174 173 173 174
230 235 227 214 230 230 218 224 220 208 221 230 234 253 269 265 224 198 215 215 214 216 223 225 212 203 208 212 210 207 206 204 204 205 203 201 201 199 192 190 192 192 202 202 192 196 200 203 207 199 198 201 199 200 199 201 201 199 200 200 201 200 196 191 187 186 182 179 181 175 174 177 178 179 176 175 179 179 176 179 179 178 179 179 179 180
219 233 211 206 236 227 208 218 214 211 225 234 263 280 290 305 253 215 231 241 237 221 202 200 212 224 221 213 210 201 203 209 208 207 205 204 206 205 197 192 193 194 202 204 196 198 201 204 208 202 198 200 201 201 198 203 204 200 203 206 206 205 202 197 190 189 188 184 185 181 180 183 182 184 182 177 181 184 182 182 183 180 180 183 186 186
218 231 204 202 230 223 211 218 212 218 232 238 263 266 266 297 264 220 237 255 261 245 223 208 212 227 198 192 203 195 200 211 209 208 210 208 207 208 203 197 194 195 202 206 202 204 204 203 207 204 200 201 203 202 198 204 208 202 207 211 210 208 206 201 194 193 194 190 188 187 186 188 186 187 187 183 185 187 185 184 184 182 182 186 190 190
264 216 209 214 224 226 224 225 217 220 229 234 251 266 261 268 263 248 255 269 284 256 238 235 222 228 208 188 205 209 214 216 209 206 208 210 210 210 207 201 196 195 203 206 201 205 208 204 205 204 201 204 204 202 201 206 209 204 206 211 211 211 208 204 198 196 198 196 193 191 191 193 193 193 190 187 192 193 189 188 186 186 190 190 192 195
244 202 202 217 224 226 226 228 222 219 224 228 236 253 256 248 241 244 243 249 268 255 241 244 235 240 235 197 208 224 227 214 210 206 204 207 210 211 209 205 202 198 203 206 199 203 210 207 205 202 200 205 208 207 206 209 210 205 206 209 212 214 212 208 203 199 200 200 198 195 194 197 199 199 192 190 198 200 195 195 193 193 196 196 197 201
225 219 206 220 226 221 224 223 212 215 224 220 223 241 245 240 230 229 230 233 245 246 239 245 245 244 241 215 207 210 209 208 211 210 207 208 209 210 209 209 210 203 200 204 202 204 211 211 207 202 199 203 208 209 210 211 211 207 208 210 211 214 214 211 207 203 203 203 201 199 197 198 200 201 198 196 200 201 200 200 201 203 203 205 207 207
210 224 220 228 227 217 225 225 208 209 215 207 211 224 228 240 233 219 225 229 244 249 235 228 241 227 197 217 203 188 201 213 212 209 208 210 211 212 209 206 209 206 200 202 203 203 209 212 209 204 203 205 207 209 211 213 212 209 209 210 210 212 213 212 209 206 205 205 205 202 202 200 198 200 202 201 201 202 203 203 205 210 209 211 212 210
224 225 214 215 220 211 215 227 222 211 206 206 218 225 227 238 243 243 235 221 240 251 228 210 218 204 167 184 188 166 174 203 214 209 203 204 208 211 209 205 205 205 203 203 202 201 205 211 212 208 206 208 208 208 211 215 215 210 209 212 212 211 212 211 211 209 206 207 208 206 205 202 198 199 202 204 204 203 205 206 209 213 214 216 217 215
271 254 212 198 211 205 207 227 239 223 209 206 212 224 231 232 241 264 274 274 283 284 244 203 164 128 156 151 157 166 166 184 202 207 204 199 199 204 207 207 206 206 206 204 201 201 203 210 214 211 208 209 208 207 209 216 219 213 209 214 214 212 213 212 211 212 210 209 212 211 208 204 200 199 202 205 205 205 208 210 213 216 216 220 224 223
289 296 211 185 206 201 205 226 228 222 222 200 196 215 228 232 245 261 267 274 285 299 269 225 140 129 149 146 160 175 175 184 193 196 197 193 192 196 201 205 205 207 209 207 202 200 202 209 213 211 211 211 209 209 210 215 220 216 211 213 215 213 214 214 212 213 213 212 214 213 210 208 205 204 205 207 207 210 213 213 216 220 217 220 226 227
297 316 214 185 211 198 196 221 221 225 242 231 208 210 215 224 243 259 266 261 256 259 253 233 160 146 162 162 164 173 180 190 190 185 189 188 188 192 196 202 204 206 209 209 205 201 203 210 211 209 213 214 210 211 213 215 218 217 213 214 216 216 216 215 215 214 214 215 215 215 213 211 209 209 210 210 210 214 218 216 218 222 221 222 225 226
283 291 242 210 221 203 194 221 229 227 234 243 250 243 215 213 225 243 258 265 251 252 249 231 181 152 163 174 175 177 179 189 188 185 193 193 189 191 196 202 207 208 208 209 208 204 206 211 209 208 213 213 211 212 214 217 218 216 215 214 215 217 217 215 215 215 214 215 216 216 215 214 213 213 215 216 214 215 220 222 221 223 224 224 226 227
266 258 249 229 228 216 203 219 228 220 221 235 253 263 236 219 213 219 227 244 257 268 265 239 199 123 125 164 182 184 178 189 201 198 198 198 196 196 200 205 210 211 212 212 209 209 213 214 209 207 210 210 210 211 214 218 219 216 215 215 216 217 216 215 214 214 214 213 214 215 215 215 214 215 219 220 219 218 222 225 224 225 225 225 228 229
258 241 258 260 245 228 207 213 226 219 210 219 230 239 234 220 215 220 220 227 241 265 292 267 163 84 131 158 176 192 184 191 209 207 198 197 196 195 200 208 212 213 218 218 213 212 216 216 212 207 205 207 208 210 214 217 216 216 214 212 215 216 215 214 214 214 214 213 212 214 215 216 216 216 220 223 224 223 225 226 225 227 229 230 234 236
288 295 310 295 264 252 239 218 231 233 218 213 218 228 237 221 211 228 228 217 225 244 266 275 71 97 146 162 174 194 192 191 202 203 197 195 193 195 199 207 215 217 220 219 214 214 216 218 217 209 202 205 211 213 216 218 215 215 213 211 214 216 214 214 214 215 215 214 213 214 215 217 217 217 219 223 226 227 230 232 230 232 235 236 237 238
306 302 306 284 272 281 284 265 235 240 228 219 218 219 232 233 220 228 236 219 226 235 243 261 264 125 145 172 177 188 193 191 193 193 194 197 201 203 199 203 215 220 222 220 214 213 216 217 216 211 205 209 216 218 217 218 216 215 215 214 216 217 214 212 213 215 215 214 214 215 216 218 218 218 218 222 226 229 233 237 236 235 235 236 238 238
317 281 289 277 281 291 281 263 259 255 231 221 221 217 224 240 242 238 235 235 244 235 224 247 252 126 145 173 169 182 192 182 179 181 182 193 202 203 200 203 211 214 218 220 213 210 212 214 213 211 208 210 215 218 217 217 216 216 217 218 220 221 217 213 213 215 215 215 216 217 217 220 221 221 221 222 225 228 230 236 240 239 236 237 239 240
337 317 306 285 288 295 274 261 264 263 240 223 226 222 222 234 243 243 242 248 255 253 259 278 196 116 150 180 161 177 188 160 155 169 182 199 202 202 204 204 204 206 210 214 211 207 206 208 209 209 207 207 211 215 216 217 218 218 219 219 222 222 218 214 213 214 216 217 218 219 219 220 223 224 225 225 226 228 229 233 239 242 242 241 242 243
307 306 302 282 290 297 273 280 282 292 293 240 228 229 225 224 231 241 243 245 260 263 273 324 86 126 144 180 160 148 151 129 133 153 182 205 198 193 201 201 198 203 205 203 205 205 204 205 207 207 206 207 210 214 218 220 220 220 222 223 223 220 218 217 214 213 216 218 220 223 223 223 225 226 228 229 230 231 232 234 238 242 244 244 245 246
283 288 277 268 277 270 265 287 292 291 278 246 240 253 254 241 258 288 255 233 322 294 277 65 76 127 132 132 158 128 132 129 129 143 167 194 195 191 195 195 193 198 198 195 197 200 204 209 211 211 212 212 214 217 220 222 221 221 223 226 223 217 214 214 212 213 218 221 223 227 229 228 226 227 230 233 234 234 236 237 238 242 245 246 247 248
271 276 273 265 263 259 260 269 272 266 261 265 284 307 330 316 293 303 270 237 317 312 337 66 54 89 114 97 8 36 259 274 214 152 154 178 198 201 197 192 191 194 192 191 194 197 203 210 214 217 219 220 220 221 222 225 226 225 225 227 225 219 217 218 221 223 224 225 225 227 229 228 228 231 233 234 236 237 239 240 239 242 248 249 248 251
272 273 277 274 266 258 254 253 252 251 256 272 289 297 321 323 298 288 272 259 280 280 274 347 5 14 83 150 244 268 277 281 272 224 171 182 199 202 199 194 189 190 190 190 194 198 202 208 213 216 219 221 222 220 220 222 225 227 228 230 231 230 230 234 238 237 232 231 230 230 231 231 232 236 237 237 238 237 237 240 241 243 247 249 249 250
274 272 273 278 284 271 254 253 249 238 245 263 282 280 284 305 309 298 279 272 277 273 272 291 305 290 258 248 251 265 267 268 268 245 213 214 214 194 188 186 185 188 192 193 190 190 195 202 210 214 215 220 223 222 220 219 221 225 228 231 233 234 236 240 241 241 240 239 237 237 238 238 238 239 239 239 241 240 239 238 239 241 242 245 248 247
278 283 281 279 286 275 257 254 242 229 240 256 270 283 281 283 289 292 290 286 284 282 279 279 276 266 255 259 273 274 268 267 265 231 208 225 263 200 178 176 183 189 192 193 185 177 185 196 205 211 214 219 224 225 224 221 220 223 225 228 230 231 236 240 240 241 242 241 241 241 241 242 243 243 242 240 240 242 244 243 242 243 243 245 248 247
283 289 288 279 278 271 260 254 241 234 246 249 252 268 280 279 268 260 288 301 301 304 292 275 269 269 256 262 272 268 261 252 231 217 214 211 235 242 197 180 183 186 183 181 177 175 189 197 199 206 212 217 221 224 225 225 224 224 224 225 227 230 236 239 239 240 240 239 240 242 243 245 246 246 245 243 241 241 241 242 243 244 246 246 247 249
288 291 288 283 281 274 266 257 245 238 245 250 251 267 280 284 271 257 279 291 308 331 314 285 272 265 259 266 259 251 249 240 220 211 213 212 231 264 243 199 192 198 192 183 180 184 193 195 195 199 207 214 217 219 223 226 226 224 223 223 224 228 232 234 235 239 241 240 240 242 244 246 247 247 247 246 246 246 244 243 243 243 244 245 244 244
296 298 290 276 270 270 269 259 248 237 236 240 235 289 280 274 265 298 310 300 304 341 333 315 306 287 263 248 241 247 247 236 223 220 223 226 238 268 248 206 205 216 208 198 200 202 200 195 193 197 204 212 215 215 217 222 223 221 223 224 224 226 229 232 236 241 243 244 243 242 244 246 247 248 248 248 248 249 248 247 245 244 244 246 247 246
299 295 293 280 267 268 263 242 236 231 215 196 147 357 302 271 259 306 320 307 300 305 308 313 318 306 279 246 237 246 248 231 222 223 229 232 236 251 249 220 217 230 226 214 213 215 213 200 190 196 202 205 210 213 214 217 219 218 222 226 227 230 233 236 240 243 244 246 247 247 248 249 249 250 251 251 251 250 249 247 247 246 246 247 250 251
297 296 298 288 275 276 266 241 230 241 14 146 182 2 352 313 294 304 292 273 290 296 303 317 317 303 294 262 237 232 234 238 236 227 225 232 237 246 249 237 233 239 235 226 221 222 228 220 204 205 207 202 207 212 214 218 222 222 223 225 227 230 233 235 238 240 241 243 248 251 252 252 253 254 255 254 253 253 252 252 252 252 251 251 252 253
284 296 301 284 268 278 278 266 247 242 263 199 175 78 13 346 322 308 292 299 352 340 323 320 314 313 311 284 249 231 227 241 251 244 234 235 241 246 244 235 234 237 235 232 228 223 226 230 226 225 223 219 220 219 218 222 227 230 229 227 229 232 234 236 238 239 240 242 245 249 250 251 253 255 255 254 252 252 253 253 255 255 254 255 255 253
270 279 290 284 277 282 291 288 270 242 213 155 162 116 7 346 329 301 282 269 324 359 343 330 322 322 314 294 269 249 240 245 265 268 259 247 244 245 243 237 235 235 234 234 233 230 228 230 230 228 226 226 226 225 224 224 225 229 232 230 232 236 237 239 240 240 240 241 243 244 245 247 250 250 250 250 249 249 249 249 251 253 253 254 255 255
265 263 263 269 268 251 244 274 286 281 150 115 223 215 340 338 328 297 280 255 220 236 348 347 325 310 299 280 259 253 248 244 258 274 275 267 257 252 250 250 252 252 249 248 247 243 240 239 239 239 236 230 225 225 227 227 226 228 229 230 232 234 236 239 240 240 239 238 238 240 241 244 247 248 248 248 247 247 246 244 245 248 250 252 254 255
268 257 245 248 256 257 241 234 259 307 151 241 249 238 306 311 299 277 278 269 189 204 213 339 288 287 298 270 237 247 252 244 244 257 268 273 272 266 262 264 270 273 269 261 255 253 253 251 247 247 247 243 238 232 228 227 228 229 230 232 234 235 236 238 236 236 238 239 238 239 240 244 246 246 247 248 246 244 243 242 242 244 247 250 252 252
285 274 256 253 258 265 262 222 136 121 241 267 273 259 275 287 285 274 288 311 309 291 302 301 282 289 311 318 275 258 263 254 243 243 253 266 268 264 264 267 271 274 271 264 258 256 256 256 254 253 251 246 242 238 232 228 229 230 230 232 234 235 237 238 236 233 234 238 241 240 238 242 244 242 241 242 242 241 240 241 242 243 244 246 247 248
283 285 304 313 305 292 281 232 134 120 284 298 308 285 284 298 308 309 324 319 306 295 292 292 290 293 306 318 321 304 292 287 267 247 249 262 262 261 266 270 272 275 277 274 267 257 250 248 251 255 251 241 232 227 226 226 226 226 225 225 228 232 234 237 237 234 232 235 241 241 238 238 239 238 236 236 238 239 238 237 237 237 238 241 247 252
283 306 350 352 339 339 335 337 114 96 337 334 5 315 315 17 32 352 357 331 307 298 294 295 300 311 317 317 318 317 314 312 304 281 267 271 272 273 275 278 285 290 290 285 277 268 260 252 247 244 240 235 228 222 222 226 227 226 224 224 226 228 228 228 230 231 230 230 236 241 239 233 234 237 238 236 236 236 233 232 234 234 236 241 249 255
292 299 5 13 356 360 4 16 76 63 323 300 315 317 339 25 26 4 2 321 308 305 306 308 315 334 344 338 332 333 322 311 308 310 312 307 301 294 282 276 285 297 303 297 285 277 272 263 252 242 235 231 225 219 220 223 225 226 223 223 227 227 224 222 222 226 229 227 230 236 236 230 230 235 234 230 230 227 220 221 230 235 238 243 246 249
289 250 251 321 11 37 64 69 73 77 350 328 324 55 73 52 16 324 297 305 313 313 312 317 330 349 3 0 353 348 331 318 312 313 316 321 320 311 299 288 282 281 283 281 271 264 258 254 250 246 243 236 225 217 217 217 218 223 223 221 222 222 219 217 217 221 226 226 229 233 233 229 230 232 228 222 222 221 214 214 224 231 234 238 238 239
266 272 262 259 302 124 131 103 80 94 65 353 326 303 212 232 268 279 287 295 307 312 313 319 331 347 360 2 355 349 346 337 325 312 309 317 320 315 312 308 294 281 274 267 259 250 243 242 244 241 237 235 229 225 224 220 217 219 221 219 218 218 217 216 217 219 220 218 221 226 226 226 227 226 224 222 222 223 222 220 223 226 229 232 234 236
249 270 255 236 270 270 227 189 145 114 97 32 348 321 284 263 266 272 281 290 299 306 314 320 327 336 348 356 353 348 349 345 329 315 311 317 313 305 304 307 303 291 280 270 259 250 239 235 238 235 226 220 220 225 234 239 240 239 234 224 219 218 217 216 217 220 219 216 214 214 216 225 230 227 225 227 225 222 222 224 223 222 225 229 232 237
262 263 236 248 275 267 221 197 191 205 226 236 253 277 277 279 284 283 283 288 294 301 313 322 325 329 337 345 350 348 338 319 306 300 295 290 288 285 284 290 295 293 285 276 269 260 249 240 236 236 234 229 225 225 228 234 245 257 258 243 232 229 225 219 217 218 220 219 215 209 206 215 227 233 233 232 227 217 212 215 214 209 211 215 219 225
272 270 272 274 264 252 247 238 230 240 262 270 264 266 277 284 289 291 290 290 293 297 305 312 317 325 334 339 338 338 326 289 269 261 250 249 261 270 272 278 287 288 282 277 269 258 253 250 244 241 245 248 248 249 249 244 242 247 251 249 250 254 248 233 223 223 232 234 229 223 218 213 217 230 236 235 233 227 218 210 201 201 209 212 213 220
272 264 260 253 240 245 254 242 229 246 278 282 275 279 286 287 288 290 293 295 295 296 296 300 306 311 319 329 324 308 283 254 251 248 240 237 245 255 263 269 272 267 261 260 255 247 246 252 255 251 250 255 261 266 271 269 261 253 247 242 240 242 244 250 254 252 251 248 243 239 235 225 221 230 236 234 233 236 237 230 218 215 221 222 221 227
246 228 227 235 240 250 255 241 233 255 271 269 271 282 287 290 293 291 288 290 292 294 295 296 299 301 304 313 311 300 291 268 258 256 250 244 242 244 251 256 255 251 247 243 240 240 243 248 255 259 261 267 273 274 274 274 273 269 262 253 245 232 219 227 271 301 301 270 255 251 250 243 235 236 241 241 238 237 239 240 235 230 230 232 232 234